Погода в Катармане

Филиппины     12°30′12″N   124°38′18″E
темп.,
°C
ветер,
м/с
пор.,
м/с
влажн.,
%
обл.,
%
осадки,
мм/ч
давл.,
гПа
погр.,
м
16 мая, пн
пн1623:00+24ююв1293100 0.1 101266
02:00+24юв1193100 0.1 100960
05:00+23юв2292100 0.0 101072
08:00+26юв238093 0.0 1011255
11:00+33юв13517 0.0 10101154
14:00+27сз2686100 1.1 1008196
17:00+27юз2488100 1.3 1008146
20:00+25ююв2291100 1.4 101066
17 мая, вт
вт1723:00+24ююв229389 0.0 101164
02:00+24ююв229374 0.0 100975
05:00+23ююв2294100 0.0 101083
08:00+27юв2581100 0.0 1012391
11:00+31вюв1359100 0.0 1010991
14:00+30ссв3370100 0.1 1008369
17:00+27ююв2484100 0.4 1009134
20:00+25юв239099 0.5 1011103
18 мая, ср
ср1823:00+25юв229368 0.0 101282
02:00+24юв229477 0.0 101183
05:00+24ююв229480 0.0 101181
08:00+28юв247299 0.0 1013600
11:00+31св246262 0.4 10111169
14:00+28в0283100 4.0 1010126
17:00+27юв118681 2.3 1010113
20:00+25вюв379322 2.3 1012232
19 мая, чт
чт1923:00+25юв249567 0.2 1013135
02:00+24юв2395100 0.4 1012111
05:00+24юв249593 0.0 1012117
08:00+28вюв2581100 0.0 1013577
11:00+32св345756 0.0 10111306
14:00+32всв565637 0.1 10081241
17:00+29в47776 0.9 1009439
20:00+25вюв379310 2.4 1012237
20 мая, пт
пт2023:00+24вюв269524 0.2 1012199
02:00+24юв269653 0.3 1010173
05:00+24юв239569 0.1 1011106
08:00+28юв25775 0.1 1011529
11:00+32с136083 0.2 10091166
14:00+27с248750 2.4 1008281
17:00+27всв12885 2.8 100885
20:00+25ююв229221 4.3 101070